Location: Lawrence Hall of Science
(37.8785°N, 122.2415°W)
Time: 02:43:39
(UTC-08:00)

Cosmos 1461 - Visible Passes

Search period start: 16 January 2017 00:00
Search period end: 26 January 2017 00:00
Orbit: 528 x 647 km, 65.0° (Epoch: 15 January)

Date Brightness Start Highest point End Pass type
(mag) Time Alt. Az. Time Alt. Az. Time Alt. Az.
16 Jan 3.6 05:09:12 47° SE 05:09:12 47° SE 05:12:10 10° SE visible
16 Jan 4.8 19:06:25 10° S 19:07:49 18° SSE 19:07:49 18° SSE visible
17 Jan 4.2 05:16:58 30° S 05:16:58 30° S 05:19:09 10° SSE visible
17 Jan 3.8 19:12:56 10° SSW 19:15:42 36° S 19:15:42 36° S visible
18 Jan 5.0 05:24:49 15° S 05:24:49 15° S 05:25:45 10° S visible
18 Jan 3.0 19:19:51 10° SSW 19:23:33 67° SW 19:23:33 67° SW visible
19 Jan 4.8 17:50:13 10° SE 17:52:25 14° ESE 17:54:34 10° ENE visible
19 Jan 3.6 19:27:07 10° SW 19:31:11 47° WNW 19:31:20 47° NW visible
20 Jan 4.1 17:55:52 10° SSE 17:59:19 24° ESE 18:02:31 11° ENE visible
20 Jan 4.6 19:34:43 10° WSW 19:38:21 28° NW 19:39:01 26° NW visible
21 Jan 3.3 18:02:15 10° S 18:06:16 43° ESE 18:10:08 10° NE visible
21 Jan 5.2 19:42:47 10° W 19:45:36 17° NW 19:46:37 16° NNW visible
22 Jan 2.8 18:09:04 10° SSW 18:13:17 81° ESE 18:17:23 10° NNE visible
22 Jan 5.7 19:51:47 10° WNW 19:52:56 11° NW 19:54:05 10° NNW visible
23 Jan 3.5 18:16:14 10° SW 18:20:22 56° WNW 18:24:23 10° NNE visible
24 Jan 4.5 18:23:45 10° WSW 18:27:31 32° NW 18:31:12 10° N visible
25 Jan 5.2 18:31:40 10° W 18:34:44 20° NW 18:37:45 10° N visible
